Regional Weather Roundup
Issued by NWS

Home | Current Version | Previous Version | Text Only | Print | Product List | Glossary Off
Versions: 1 2 3 4 5 6 7 8 9 10 11 12 13 14 15 16 17 18 19 20 21 22 23 24 25 26 27 28 29 30 31 32 33 34 35 36 37 38 39 40 41 42 43 44 45 46 47 48 49 50

268
ASUS43 KLOT 042003
RWRIL

ILLINOIS REGIONAL WEATHER ROUNDUP
NATIONAL WEATHER SERVICE CHICAGO/ROMEOVILLE IL
300 PM CDT WED MAY 04 2016

NOTE: "FAIR" INDICATES FEW OR NO CLOUDS BELOW 12,000 FEET WITH NO
SIGNIFICANT WEATHER AND/OR OBSTRUCTIONS TO VISIBILITY.

* THESE STATIONS ARE NOT UNDER NWS QUALITY CONTROL. THEY ALSO MAY NOT
  REPORT WEATHER SUCH AS PRECIPITATION OR FOG.

ILZ001-002-007-009-015-016-024-042100-
NORTHWEST ILLINOIS

CITY           SKY/WX    TMP DP  RH WIND       PRES   REMARKS
MOLINE         MOSUNNY   61  34  36 N13G22    29.84F
STERLING*      CLOUDY    57  37  47 NW18      29.83S
$$

ILZ003-004-008-010-011-017-018-042100-
NORTH CENTRAL ILLINOIS

CITY           SKY/WX    TMP DP  RH WIND       PRES   REMARKS
ROCKFORD       CLOUDY    57  38  48 N17G25    29.83S
FREEPORT*      CLOUDY    58  35  42 NW16G26   29.83S
DE KALB*       CLOUDY    52  40  65 N14       29.82S
$$

ILZ005-006-012>014-019>023-042100-
NORTHEAST ILLINOIS

CITY           SKY/WX    TMP DP  RH WIND       PRES   REMARKS
CHICAGO-OHARE  CLOUDY    50  36  58 N17       29.79S
CHICAGO-MIDWAY CLOUDY    50  37  61 NE10      29.79S
AURORA         CLOUDY    54  41  61 N16G24    29.81S
LANSING*       CLOUDY    47  38  69 N13       29.80S
WAUKEGAN       CLOUDY    46  38  73 N7        29.80R
DUPAGE AIRPORT CLOUDY    51  36  56 N18       29.80R
WHEELING       CLOUDY    46  37  71 NE10      29.82R
NORTHERLY ISL    N/A     45  37  73 NW17        N/A
NORTHERLY ISL    N/A     45  37  73 NW17        N/A
$$

LMZ740>746-042100-
SOUTHERN LAKE MICHIGAN

STATION/POSITION SKY/WX   TEMP    WIND        PRES    VSBY  WAVE
                          AIR SEA DIR/SP/G                  HT/PER
                          (F)     (DEG/KT/KT) (MB)    (MI)  (FT/S)
SOUTHERN BUOY              41 40  360/ 25/ 33 1007.3          8/ 7
WILMETTE HARBOR            42 44   30/ 16/ 19   N/A           5/ 5
HARRISON CRIB              44     360/ 19/ 20   N/A
BURNHAM HARBOR             45     330/ 12/ 17   N/A
CALUMET HARBOR             45     330/ 15/ 20 1008.7R
BURNS HARBOR               44     360/ 20/ 24 1009.1R
MICHIGAN CITY              43     330/ 25/ 29   N/A
ST. JOSEPH                 43 47                N/A          10/ 7
$$

ILZ025>027-034>036-040-047-049-050-058-095>099-042100-
WEST-CENTRAL ILLINOIS

CITY           SKY/WX    TMP DP  RH WIND       PRES   REMARKS
QUINCY         MOSUNNY   64  37  36 N16G26    29.89R
MACOMB*        CLOUDY    62  36  38 NW24G30   29.89S
$$

ILZ028>032-037-038-041>044-048-051>054-059>061-042100-
CENTRAL ILLINOIS

CITY           SKY/WX    TMP DP  RH WIND       PRES   REMARKS
BLOOMINGTON    CLOUDY    55  41  59 NW21      29.83R
DECATUR        CLOUDY    58  38  47 NW17G32   29.82R
PEORIA         CLOUDY    57  36  45 N10G21    29.85R
SPRINGFIELD    CLOUDY    60  41  49 N17G29    29.84S
TAYLORVILLE    NOT AVBL
$$

ILZ033-039-045-046-055>057-062-063-042100-
EAST-CENTRAL ILLINOIS

CITY           SKY/WX    TMP DP  RH WIND       PRES   REMARKS
CHAMPAIGN      CLOUDY    56  40  55 NW23G30   29.79R
MATTOON        PTSUNNY   59  43  55 N24G31    29.78R
$$

ILZ079-100>102-042100-
SOUTHWEST ILLINOIS

CITY           SKY/WX    TMP DP  RH WIND       PRES   REMARKS
ALTON          PTSUNNY   63  41  45 N20G29    29.84R
CAHOKIA*       MOSUNNY   66  40  38 N18G29    29.83R
SPARTA*        MOSUNNY   64  46  50 N15G22    29.82S
$$

ILZ064>066-069>071-074>076-080>082-084>086-088>090-092>094-042100-
SOUTH-CENTRAL ILLINOIS

CITY           SKY/WX    TMP DP  RH WIND       PRES   REMARKS
CARBONDALE     MOSUNNY   68  42  38 N17G33    29.80R
MARION         PTSUNNY   66  43  42 N14G21    29.80R
MT. VERNON     PTSUNNY   64  39  39 N6        29.81S
SALEM*         PTSUNNY   62  43  49 N18G26    29.80S
$$

ILZ067-068-072-073-078-083-087-091-042100-
SOUTHEAST ILLINOIS

CITY           SKY/WX    TMP DP  RH WIND       PRES   REMARKS
LAWRENCEVILLE  PTSUNNY   62  43  49 N20G25    29.76R
FLORA*         PTSUNNY   58  42  55 N20G36    29.80R
HARRISBURG*    MOSUNNY   65  41  41 N17G25    29.78S
ROBINSON*      PTSUNNY   58  44  60 NW17G24   29.77R
$$

ABBREVIATIONS USED IN REMARKS
   TC - TEMPERATURE IN CELSIUS
  WCI - WIND CHILL INDEX
   HX - HEAT INDEX
  VSB - VISIBILITY
$$





USA.gov is the U.S. government's official web portal to all federal, state and local government web resources and services.